ORBCOMM FM06 1 25118U 97084G 26124.65283656 .00001476 00000+0 43728-3 0 9995 2 25118 45.0139 262.2706 0000854 171.2048 203.2252 14.47455487488089 ORBCOMM FM04 1 25159U 98007C 26124.49853108 .00001121 00000+0 43003-3 0 9996 2 25159 107.9621 79.5123 0039599 40.9410 319.4693 14.35653402470324 ORBCOMM FM19 1 25415U 98046C 26124.65595373 .00001055 00000+0 38124-3 0 9993 2 25415 44.9932 90.4644 0001931 52.6943 116.9337 14.39409601450501 ORBCOMM FM20 1 25416U 98046D 26124.31505262 .00000665 00000+0 26458-3 0 9998 2 25416 44.9933 99.5271 0001533 305.9674 54.1031 14.37999585450475 ORBCOMM FM27 1 25481U 98053G 26124.59135702 .00000825 00000+0 31036-3 0 9992 2 25481 45.0041 182.4049 0001856 256.5617 103.5025 14.39057555443951 ORBCOMM FM32 1 25982U 99065C 26124.42504360 .00000715 00000+0 28621-3 0 9998 2 25982 45.0172 20.3713 0004977 203.7502 156.3117 14.37069045380799 ORBCOMM FM109 1 40086U 14040A 26124.60797700 .00000451 00000+0 13177-3 0 9999 2 40086 47.0038 297.5186 0001247 5.2292 354.8607 14.58799164627983 ORBCOMM FM114 1 41179U 15081A 26124.62553492 .00000428 00000+0 12686-3 0 9997 2 41179 47.0042 207.9505 0002203 334.1870 25.8905 14.58810206551399 ORBCOMM FM110 1 41182U 15081D 26124.47729886 .00000716 00000+0 18801-3 0 9991 2 41182 47.0013 208.1045 0003899 239.5017 120.5484 14.58812781551245 ORBCOMM FM118 1 41183U 15081E 26124.58040162 .00000712 00000+0 18691-3 0 9990 2 41183 47.0036 207.9432 0003621 208.3077 151.7612 14.58834508551364 ORBCOMM FM112 1 41184U 15081F 26124.37875469 .00000609 00000+0 16601-3 0 9998 2 41184 46.9976 117.3797 0002183 4.0999 355.9904 14.58557941552557 ORBCOMM FM113 1 41185U 15081G 26124.35545051 .00000360 00000+0 11244-3 0 9990 2 41185 46.9993 117.8602 0001867 334.5955 25.4839 14.58808911552538 ORBCOMM FM108 1 41187U 15081J 26124.45500885 .00000686 00000+0 18155-3 0 9998 2 41187 47.0063 28.9498 0002833 346.2919 13.7889 14.58806186553694 ORBCOMM FM117 1 41188U 15081K 26124.42044450 .00000671 00000+0 17846-3 0 9997 2 41188 47.0030 27.7606 0003223 353.7323 6.3522 14.58804606553735 ORBCOMM FM116 1 41189U 15081L 26124.33273129 .00000259 00000+0 91086-4 0 9996 2 41189 47.0010 117.9644 0002384 247.5640 112.4994 14.58817983552538